Location: Unspecified
(56.5167°N, 0.0000°E)
Time: 07:54:50
(UTC+02:00)

Resurs 1-4 Rocket - Pass Details

Date: 08 August 2020
Orbit: 799 x 815 km, 98.6° (Epoch: 21 September)

Event Time Altitude Azimuth Distance (km) Brightness Sun altitude
Rises 04:43:15 0° 14° (NNE) 3,341 6.7 -10.3°
Reaches altitude 10° 04:45:40 10° 9° (N) 2,403 5.6 -10.1°
Maximum altitude 04:50:45 49° 297° (WNW) 1,038 2.6 -9.7°
Enters shadow 04:55:28 12° 225° (SW) 2,257 3.7 -9.3°
